This is the latest recevied weather packets stored in our database for station/object WA9NNN-10. If no packets are shown the sender has not sent any weather packets the latest 1 day(s).
| Time | Temp. | Humidity | Pressure | Rain* | Wind** | Luminosity | Snow |
|---|---|---|---|---|---|---|---|
| 1778012497 | 14.44° C | 33% | 1008.7 hPa | 0 mm | 1.79 m/s, 330° | - | - |
| 1778012197 | 14.44° C | 33% | 1008.7 hPa | 0 mm | 0.89 m/s, 258° | - | - |
| 1778011897 | 14.44° C | 33% | 1008.8 hPa | 0 mm | 0.45 m/s, 236° | - | - |
| 1778011597 | 14.44° C | 33% | 1008.8 hPa | 0 mm | 0.89 m/s, 263° | - | - |
| 1778011297 | 14.44° C | 32% | 1008.7 hPa | 0 mm | 1.79 m/s, 311° | - | - |
| 1778010997 | 15° C | 32% | 1008.6 hPa | 0 mm | 0.89 m/s, 229° | - | - |
| 1778010697 | 15° C | 31% | 1008.6 hPa | 0 mm | 2.24 m/s, 235° | - | - |
| 1778010396 | 15.56° C | 32% | 1008.7 hPa | 0 mm | 2.68 m/s, 287° | - | - |
| 1778010097 | 15.56° C | 34% | 1008.7 hPa | 0 mm | 1.34 m/s, 250° | - | - |
| 1778009796 | 15.56° C | 35% | 1008.9 hPa | 0 mm | 0.89 m/s, 276° | - | - |
| 1778009497 | 15.56° C | 36% | 1008.8 hPa | 0 mm | 1.34 m/s, 259° | - | - |
| 1778009197 | 15° C | 36% | 1008.9 hPa | 0 mm | 0.45 m/s, 217° | - | - |
| 1778008897 | 15° C | 37% | 1008.9 hPa | 0 mm | 2.24 m/s, 223° | - | - |
| 1778008596 | 15° C | 36% | 1008.9 hPa | 0 mm | 0.89 m/s, 276° | - | - |
| 1778008297 | 15° C | 36% | 1009 hPa | 0 mm | 0.89 m/s, 246° | - | - |
| 1778007996 | 15° C | 36% | 1008.9 hPa | 0 mm | 2.68 m/s, 222° | - | - |
| 1778007697 | 15° C | 35% | 1008.8 hPa | 0 mm | 1.34 m/s, 184° | - | - |
| 1778007396 | 15° C | 35% | 1009 hPa | 0 mm | 2.68 m/s, 301° | - | - |
| 1778007097 | 15.56° C | 35% | 1009 hPa | 0 mm | 0.89 m/s, 331° | - | - |
| 1778006796 | 15.56° C | 34% | 1009 hPa | 0 mm | 2.24 m/s, 283° | - | - |
| 1778006497 | 15.56° C | 34% | 1009.1 hPa | 0 mm | 1.79 m/s, 240° | - | - |
| 1778006196 | 15.56° C | 35% | 1009.1 hPa | 0 mm | 1.79 m/s, 271° | - | - |
| 1778005897 | 15.56° C | 33% | 1009.1 hPa | 0 mm | 0.45 m/s, 295° | - | - |
| 1778005596 | 15.56° C | 32% | 1008.9 hPa | 0 mm | 1.34 m/s, 301° | - | - |
| 1778005297 | 15.56° C | 34% | 1009 hPa | 0 mm | 1.34 m/s, 257° | - | - |
* Rain latest hour (hover to see other rain measurements)
** Current wind speed in m/s (hover to see current wind gust speed)